Waarnemingen

Advertentie
Mijn weer
Norderney, Duitsland (10113): temperatuur & dauwpunt: 17.01.2018 08:00:00 - 23.01.2018 08:00:00 (CET)Norderney, Duitsland (10113): temperatuur 5cm & temperatuur -5cm: 17.01.2018 08:00:00 - 23.01.2018 08:00:00 (CET)Norderney, Duitsland (10113): temperatuur -20cm & temperatuur -100cm: 17.01.2018 08:00:00 - 23.01.2018 08:00:00 (CET)Norderney, Duitsland (10113): windsnelheid & windstoten: 17.01.2018 08:00:00 - 23.01.2018 08:00:00 (CET)Norderney, Duitsland (10113): windrichting: 17.01.2018 08:00:00 - 23.01.2018 08:00:00 (CET)Norderney, Duitsland (10113): luchtdruk: 17.01.2018 08:00:00 - 23.01.2018 08:00:00 (CET)Norderney, Duitsland (10113): zicht: 17.01.2018 08:00:00 - 23.01.2018 08:00:00 (CET)Norderney, Duitsland (10113): Zonneschijnduur: 17.01.2018 08:00:00 - 23.01.2018 08:00:00 (CET)Norderney, Duitsland (10113): neerslag: 17.01.2018 08:00:00 - 23.01.2018 08:00:00 (CET)
Datum & Tijd tt [°C] td [°C] tt 5cm [°C] tt -5cm [°C] tt -20cm [°C] tt -100cm [°C] ff [km/u] ff [kn] fx [km/u] fx [kn] dd ppp [hPa] vv [km] sd [min] rr [mm]
23.01.2018 08:00:00 4,7 4,1 4,0 3,3 3,3 4,5 13 7 26 14 ZZW 1017,5 13 0 0,0
23.01.2018 07:00:00 4,7 4,1 4,1 3,4 3,3 4,5 17 9 29 15 ZW 1017,3 12 0 0,0
23.01.2018 06:00:00 4,6 4,2 4,0 3,5 3,3 4,5 12 6 24 13 ZZW 1017,0 10 0 0,0
23.01.2018 05:00:00 4,9 4,4 4,4 3,5 3,3 4,5 14 7 28 15 ZW 1016,7 10 0 0,0
23.01.2018 04:00:00 4,7 4,1 4,1 3,3 3,3 4,5 17 9 26 14 ZW 1016,1 10 0 0,0
23.01.2018 03:00:00 5,3 4,7 4,3 3,3 3,3 4,5 16 8 26 14 WZW 1015,7 10 0 0,0
23.01.2018 02:00:00 5,1 4,6 3,9 3,7 3,3 4,5 16 9 29 16 WZW 1014,8 9 0 0,0
23.01.2018 01:00:00 5,3 4,6 4,8 3,8 3,2 4,5 19 11 29 16 W 1014,7 9 0 0,0
23.01.2018 00:00:00 5,3 4,7 4,8 3,7 3,2 4,5 26 14 35 19 W 1013,9 7 0 0,0
22.01.2018 23:00:00 5,1 4,4 4,6 3,5 3,1 4,5 23 12 32 17 W 1012,8 9 0 0,0
22.01.2018 22:00:00 4,7 4,2 4,0 3,5 3,1 4,5 20 11 26 14 W 1011,7 8 0 0,0
22.01.2018 21:00:00 4,8 4,2 4,4 3,5 3,0 4,5 17 9 25 13 W 1011,0 9 0 0,0
22.01.2018 20:00:00 4,8 4,3 4,4 3,4 3,0 4,5 17 9 23 12 W 1010,3 9 0 0,0
22.01.2018 19:00:00 4,9 4,3 4,3 3,4 2,9 4,5 16 9 20 11 W 1009,3 10 0 0,0
22.01.2018 18:00:00 5,0 4,5 4,5 3,4 2,8 4,5 16 8 21 11 W 1008,5 10 0 0,0
22.01.2018 17:00:00 5,1 4,6 4,6 3,6 2,7 4,5 18 10 23 13 W 1007,2 9 0 0,0
22.01.2018 16:00:00 5,0 4,5 4,7 3,4 2,6 4,5 10 5 18 10 WZW 1006,4 7 0 0,1
22.01.2018 15:00:00 3,5 3,2 3,5 3,3 2,4 4,5 6 4 12 6 Z 1005,6 3,0 0 0,0
22.01.2018 14:00:00 2,9 2,7 2,9 2,9 2,2 4,5 7 4 16 9 Z 1005,1 3,4 0 0,0
22.01.2018 13:00:00 2,4 2,2 2,5 2,6 2,1 4,5 11 6 23 13 Z 1005,0 4,6 0 0,0
22.01.2018 12:00:00 2,1 1,6 2,1 2,2 1,9 4,5 12 7 25 13 Z 1004,9 5 0 0,0
22.01.2018 11:00:00 1,7 1,2 1,6 1,8 1,9 4,5 16 8 27 15 Z 1004,5 3,1 0 0,0
22.01.2018 10:00:00 1,6 0,9 1,4 1,5 1,8 4,5 18 10 27 14 ZZO 1004,4 6 0 0,0
22.01.2018 09:00:00 1,4 0,6 1,0 1,3 1,8 4,5 19 10 30 16 ZZO 1004,5 6 0 0,0
22.01.2018 08:00:00 1,5 0,6 1,0 1,3 1,8 4,5 19 10 33 18 ZZO 1004,5 6 0 0,0
22.01.2018 07:00:00 1,1 0,5 0,8 1,3 1,9 4,5 19 10 36 20 ZO 1004,6 3,1 0 0,0
22.01.2018 06:00:00 1,3 0,5 0,9 1,3 1,9 4,5 22 12 35 19 ZO 1005,3 3,9 0 0,3
22.01.2018 05:00:00 2,1 0,3 1,4 1,4 1,9 4,5 18 10 29 16 ZO 1006,5 6 0 0,0
22.01.2018 04:00:00 2,4 0,1 1,9 1,4 1,9 4,5 20 11 31 17 ZZO 1006,9 11 0 0,0
22.01.2018 03:00:00 2,2 0,7 1,8 1,4 1,9 4,5 20 11 31 17 ZO 1007,3 8 0 0,0
22.01.2018 02:00:00 2,3 1,0 1,7 1,3 1,9 4,5 16 9 28 15 ZZO 1008,9 8 0 0,0
22.01.2018 01:00:00 2,2 0,9 1,6 1,3 1,9 4,5 21 11 35 19 ZZO 1009,8 10 0 0,0
22.01.2018 00:00:00 1,7 0,9 1,1 1,2 1,9 4,5 16 8 26 14 ZZO 1011,1 8 0 0,0
21.01.2018 23:00:00 1,7 1,0 1,1 1,1 1,9 4,5 17 9 28 15 ZZO 1011,9 8 0 0,0
21.01.2018 22:00:00 1,6 1,1 1,0 1,1 2,0 4,6 17 9 28 15 ZZO 1012,7 8 0 0,0
21.01.2018 21:00:00 1,4 1,3 0,8 1,1 2,1 4,6 15 8 26 14 ZZO 1012,9 5 0 0,0
21.01.2018 20:00:00 0,9 0,9 0,4 1,3 2,2 4,6 14 7 22 12 ZZO 1014,1 2,1 0 0,0
21.01.2018 19:00:00 0,7 0,6 0,4 1,5 2,4 4,6 16 8 24 13 ZZO 1014,5 0,5 0 0,0
21.01.2018 18:00:00 1,2 0,8 0,9 1,8 2,5 4,6 15 8 23 12 ZZO 1014,6 0,7 0 0,0
21.01.2018 17:00:00 2,7 2,0 1,6 2,5 2,5 4,6 13 7 18 10 ZZO 1014,6 14 10 0,0
21.01.2018 16:00:00 3,7 2,3 3,0 3,5 2,4 4,6 14 8 21 12 Z 1014,7 59 1 0,0
21.01.2018 15:00:00 3,9 2,2 3,7 3,8 2,0 4,6 11 6 18 10 Z 1014,5 61 19 0,0
21.01.2018 14:00:00 4,2 2,1 4,7 3,4 1,6 4,6 7 4 11 6 Z 1014,1 65 12 0,0
21.01.2018 13:00:00 3,9 1,9 3,9 2,1 1,4 4,6 7 4 14 8 ZZW 1013,6 61 1 0,0
21.01.2018 12:00:00 3,5 1,2 3,1 0,6 1,3 4,6 10 5 14 8 ZW 1013,9 41 11 0,0
21.01.2018 11:00:00 3,9 1,3 4,2 0,4 1,3 4,6 5 3 13 7 ZW 1012,8 46 46 0,0
21.01.2018 10:00:00 2,4 1,2 0,8 0,4 1,4 4,6 7 4 12 6 ZZW 1012,0 39 6 0,0
21.01.2018 09:00:00 2,1 1,0 0,5 0,4 1,4 4,6 6 3 12 7 ZZW 1011,0 29 0 0,3
21.01.2018 08:00:00 2,7 0,6 0,5 0,4 1,5 4,6 12 6 24 13 WNW 1009,8 32 0 0,0
21.01.2018 07:00:00 1,7 1,1 -0,2 0,4 1,5 4,6 6 3 11 6 ZZW 1008,6 57 0 0,0
21.01.2018 06:00:00 1,7 1,1 0,4 0,5 1,6 4,6 8 4 12 7 ZW 1007,6 49 0 0,0
21.01.2018 05:00:00 1,5 0,5 -0,5 0,5 1,6 4,6 6 3 11 6 ZW 1006,8 70 0 0,0
21.01.2018 04:00:00 1,2 0,6 -0,5 0,6 1,7 4,6 7 4 14 8 Z 1005,7 70 0 0,8
21.01.2018 03:00:00 1,3 0,4 0,3 0,8 1,8 4,6 14 8 28 15 W 1005,2 2,6 0 0,7
21.01.2018 02:00:00 2,2 0,9 1,3 1,0 1,9 4,6 12 6 20 11 ZZW 1003,8 8 0 0,5
21.01.2018 01:00:00 1,9 1,3 1,3 0,8 2,0 4,6 10 5 18 10 ZZW 1003,3 11 0 0,0
21.01.2018 00:00:00 1,3 0,9 0,6 0,8 2,1 4,6 10 5 18 10 Z 1002,6 6 0 0,0
20.01.2018 23:00:00 0,6 0,3 0,0 1,0 2,3 4,6 9 5 28 15 ZZW 1002,2 4,5 0 2,6
20.01.2018 22:00:00 2,3 1,5 1,9 1,9 2,3 4,6 9 5 17 9 ZZW 1001,6 5 0 0,0
20.01.2018 21:00:00 2,2 1,3 1,9 1,9 2,3 4,6 12 7 20 11 Z 1001,1 6 0 0,0
20.01.2018 20:00:00 2,3 1,4 1,9 2,0 2,3 4,7 12 7 20 11 Z 1000,7 5 0 0,0
20.01.2018 19:00:00 2,4 1,5 1,9 2,1 2,3 4,7 11 6 20 11 Z 1000,7 6 0 0,0
20.01.2018 18:00:00 2,4 1,6 2,0 2,1 2,3 4,7 11 6 22 12 Z 1000,4 4,9 0 0,0
20.01.2018 17:00:00 2,3 1,5 2,0 2,3 2,3 4,7 14 7 26 14 Z 1000,5 4,2 0 0,0
20.01.2018 16:00:00 2,2 1,4 2,0 2,4 2,2 4,7 16 9 28 15 Z 1000,6 3,6 0 0,0
20.01.2018 15:00:00 1,9 1,4 1,9 2,5 2,1 4,7 16 9 31 17 ZZW 1000,6 4,3 0 0,0
20.01.2018 14:00:00 1,6 1,0 1,7 2,6 1,9 4,7 18 10 35 19 ZZW 1001,0 3,0 0 0,0
20.01.2018 13:00:00 1,6 1,1 1,6 2,1 1,8 4,7 23 13 36 20 ZZW 1001,8 2,7 0 0,0
20.01.2018 12:00:00 1,6 0,9 1,5 1,8 1,6 4,7 22 12 38 21 ZZW 1002,5 3,2 10 0,0
20.01.2018 11:00:00 1,8 1,0 1,3 1,5 1,5 4,7 18 10 34 18 Z 1002,6 5 2 0,0
20.01.2018 10:00:00 1,9 0,9 2,0 0,8 1,5 4,7 19 11 34 18 ZZW 1002,8 11 28 0,0
20.01.2018 09:00:00 1,1 0,5 0,4 0,7 1,5 4,7 17 9 32 17 Z 1002,9 6 0 0,1
20.01.2018 08:00:00 1,2 0,5 0,8 0,6 1,6 4,7 19 10 35 19 ZZW 1003,1 6 0 0,0
20.01.2018 07:00:00 1,0 0,4 0,2 0,4 1,6 4,7 19 10 35 19 Z 1003,1 4,8 0 0,0
20.01.2018 06:00:00 1,4 0,7 0,7 0,7 1,7 4,7 19 11 34 19 Z 1003,5 6 0 0,0
20.01.2018 05:00:00 1,6 0,9 0,7 0,7 1,8 4,7 19 10 38 21 ZZW 1003,9 13 0 0,0
20.01.2018 04:00:00 1,9 0,9 1,4 0,8 1,8 4,7 22 12 32 17 ZW 1004,3 29 0 0,0
20.01.2018 03:00:00 2,1 1,0 1,2 0,8 1,9 4,7 21 12 33 18 ZZW 1004,5 17 0 0,3
20.01.2018 02:00:00 2,2 1,0 1,6 1,0 1,9 4,7 22 12 35 19 ZW 1004,9 14 0 0,0
20.01.2018 01:00:00 2,0 0,6 1,4 0,9 2,0 4,7 23 12 39 21 ZW 1005,2 9 0 0,0
20.01.2018 00:00:00 2,5 1,0 1,1 0,9 2,1 4,7 22 12 37 20 ZW 1004,9 33 0 0,0
19.01.2018 23:00:00 2,6 1,2 1,5 1,4 2,2 4,7 25 13 38 20 ZW 1005,0 22 0 0,1
19.01.2018 22:00:00 2,7 1,1 1,8 1,3 2,2 4,7 13 7 29 16 WZW 1005,2 10 0 0,1
19.01.2018 21:00:00 2,5 1,1 1,5 1,3 2,4 4,7 19 11 35 19 ZW 1005,0 35 0 0,0
19.01.2018 20:00:00 2,7 1,0 1,5 1,5 2,5 4,8 21 12 36 19 ZW 1004,8 33 0 0,0
19.01.2018 19:00:00 3,0 1,4 1,8 1,9 2,6 4,8 16 9 43 23 ZZW 1004,8 30 0 0,0
19.01.2018 18:00:00 3,4 0,9 2,1 1,8 2,7 4,8 22 12 36 19 ZW 1004,8 49 0 0,0
19.01.2018 17:00:00 3,6 1,5 2,3 2,5 2,8 4,8 20 11 40 21 ZW 1004,7 39 0 0,0
19.01.2018 16:00:00 3,7 1,2 3,0 3,2 2,7 4,8 15 8 29 16 WZW 1004,8 36 0 0,0
19.01.2018 15:00:00 3,4 2,0 2,7 3,2 2,6 4,8 16 9 37 20 ZW 1004,5 32 24 1,0
19.01.2018 14:00:00 4,3 2,8 5,0 3,8 2,3 4,8 19 10 37 20 ZW 1004,1 21 28 0,3
19.01.2018 13:00:00 3,9 2,5 4,4 3,2 2,0 4,8 21 12 36 19 ZW 1004,0 18 25 0,1
19.01.2018 12:00:00 3,4 1,8 3,1 2,6 1,7 4,8 21 12 33 18 ZW 1004,1 38 21 0,0
19.01.2018 11:00:00 3,1 2,0 3,6 1,7 1,6 4,8 20 11 34 19 ZW 1003,8 21 26 0,0
19.01.2018 10:00:00 2,7 1,8 2,6 1,0 1,5 4,8 23 12 35 19 ZW 1003,4 15 10 0,0
19.01.2018 09:00:00 2,4 1,4 1,1 0,6 1,5 4,8 19 10 29 15 ZW 1002,9 56 0 0,1
19.01.2018 08:00:00 2,9 1,5 2,1 0,7 1,5 4,8 19 10 34 18 WZW 1002,3 19 0 0,1
19.01.2018 07:00:00 2,7 1,4 1,7 0,4 1,5 4,8 16 9 35 19 WZW 1001,8 26 0 0,0
19.01.2018 06:00:00 2,1 1,2 0,7 0,2 1,6 4,8 16 9 25 13 ZW 1001,3 15 0 0,0
19.01.2018 05:00:00 2,4 1,4 1,5 0,6 1,7 4,9 23 12 37 20 ZW 1001,0 18 0 0,0
19.01.2018 04:00:00 2,5 1,5 1,2 0,6 1,8 4,9 20 11 30 16 ZW 1000,6 32 0 0,0
19.01.2018 03:00:00 3,1 1,7 2,2 0,7 1,8 4,9 17 9 26 14 ZW 1000,4 38 0 0,0
19.01.2018 02:00:00 4,1 1,0 1,7 0,8 1,9 4,9 16 8 26 14 WNW 1000,1 10 0 0,0
19.01.2018 01:00:00 3,2 1,8 1,7 0,6 2,0 4,9 17 9 24 13 ZW 999,8 27 0 0,0
19.01.2018 00:00:00 2,9 1,3 1,2 0,8 2,1 4,9 13 7 23 12 ZW 999,5 27 0 0,0
18.01.2018 23:00:00 3,6 1,9 1,9 1,1 2,2 4,9 13 7 30 16 WZW 999,1 10 0 0,0
18.01.2018 22:00:00 3,9 1,6 2,0 1,3 2,3 4,9 24 13 40 21 WNW 998,6 13 0 0,0
18.01.2018 21:00:00 3,7 1,8 1,8 1,4 2,5 4,9 27 15 33 18 W 998,1 16 0 0,0
18.01.2018 20:00:00 3,1 1,7 1,5 2,0 2,5 4,9 16 9 44 24 WNW 997,5 14 0 0,5
18.01.2018 19:00:00 2,9 1,7 1,6 2,2 2,6 4,9 19 10 35 19 NW 996,8 20 0 0,5
18.01.2018 18:00:00 3,1 2,0 2,0 2,3 2,6 4,9 20 11 49 26 WNW 996,1 20 0 0,9
18.01.2018 17:00:00 3,1 1,9 2,5 2,7 2,6 4,9 30 16 58 31 NW 995,2 13 0 0,0
18.01.2018 16:00:00 4,2 1,9 3,2 3,0 2,5 4,9 34 18 44 24 NW 993,6 16 0 0,0
18.01.2018 15:00:00 3,9 2,0 3,3 2,9 2,3 4,9 40 22 63 34 NNW 992,1 11 0 0,0
18.01.2018 14:00:00 3,8 1,9 3,3 2,6 2,1 4,9 59 32 77 42 N 988,9 12 0 0,1
18.01.2018 13:00:00 3,0 1,6 2,5 2,1 1,9 4,9 64 35 78 42 N 983,7 7 0 0,1
18.01.2018 12:00:00 3,4 2,5 2,8 1,7 1,8 5,0 37 20 46 25 NNO 977,3 7 0 2,8
18.01.2018 11:00:00 3,4 3,1 2,8 0,6 2,0 5,0 16 9 30 16 Z 976,3 4,3 0 2,4
18.01.2018 10:00:00 2,1 1,8 1,4 0,7 2,1 5,0 21 11 53 29 ZZO 977,4 4,3 0 1,0
18.01.2018 09:00:00 0,5 0,5 0,0 0,9 2,3 5,0 26 14 47 25 ZO 979,7 3,8 0 1,1
18.01.2018 08:00:00 0,3 0,2 0,0 1,1 2,5 5,0 24 13 40 22 ZO 982,9 1,6 0 3,0
18.01.2018 07:00:00 1,5 0,8 0,5 2,0 2,5 5,0 27 14 39 21 ZZO 987,5 4,3 0 1,3
18.01.2018 06:00:00 2,7 1,5 2,2 2,2 2,5 5,0 23 12 40 21 Z 990,8 11 0 0,2
18.01.2018 05:00:00 3,3 1,4 2,7 2,1 2,5 5,0 26 14 39 21 Z 993,5 26 0 0,0
18.01.2018 04:00:00 3,7 1,5 2,8 2,0 2,6 5,0 24 13 40 22 ZZW 995,4 26 0 0,0
18.01.2018 03:00:00 3,7 1,5 2,7 2,1 2,6 5,0 24 13 51 27 ZW 997,0 25 0 0,0
18.01.2018 02:00:00 4,0 1,7 2,9 2,1 2,6 5,0 26 14 41 22 ZW 998,2 19 0 0,0
18.01.2018 01:00:00 3,5 2,2 2,5 2,0 2,6 5,0 20 11 53 28 WZW 999,3 8 0 1,3
18.01.2018 00:00:00 4,2 1,2 3,0 2,6 2,6 5,0 34 18 53 29 WZW 999,5 16 0 0,1
17.01.2018 23:00:00 4,1 2,0 3,0 2,5 2,5 5,0 36 19 58 32 W 999,4 9 0 0,2
17.01.2018 22:00:00 4,7 1,5 3,0 2,2 2,5 5,0 36 19 55 30 W 999,2 9 0 0,1
17.01.2018 21:00:00 3,8 1,5 2,8 2,1 2,5 5,0 50 27 69 38 W 999,0 9 0 0,7
17.01.2018 20:00:00 1,7 0,2 1,4 2,1 2,5 5,0 56 30 75 41 NW 998,8 1,4 0 0,0
17.01.2018 19:00:00 3,8 1,8 2,4 1,7 2,6 5,0 21 11 50 27 W 998,6 9 0 0,1
17.01.2018 18:00:00 2,8 1,1 2,3 2,2 2,7 5,0 45 24 67 36 WNW 998,0 8 0 0,4
17.01.2018 17:00:00 3,4 0,4 2,5 2,3 2,7 5,0 56 30 72 39 WNW 997,1 21 0 0,1
17.01.2018 16:00:00 3,4 1,3 3,1 2,7 2,7 5,0 50 27 63 34 W 995,8 16 0 0,1
17.01.2018 15:00:00 3,7 0,7 2,6 2,6 2,7 5,0 16 9 43 23 W 994,8 15 16 0,0
17.01.2018 14:00:00 2,6 0,7 2,4 2,9 2,5 5,0 34 18 52 28 NW 994,0 8 5 0,1
17.01.2018 13:00:00 4,0 0,8 4,6 2,9 2,4 5,1 38 20 49 27 W 993,3 12 4 0,0
17.01.2018 12:00:00 3,8 0,6 3,1 2,7 2,2 5,1 21 12 45 25 ZW 992,8 18 17 0,1
17.01.2018 11:00:00 4,1 0,1 3,4 2,0 2,1 5,1 31 17 58 32 W 992,4 18 0 0,0
17.01.2018 10:00:00 4,1 0,1 2,7 1,6 2,0 5,1 40 22 55 30 W 991,5 13 1 0,0
17.01.2018 09:00:00 4,0 0,7 2,8 1,5 2,0 5,1 33 18 52 28 W 990,6 14 0 0,0
17.01.2018 08:00:00 4,0 1,2 2,6 1,3 2,0 5,1 36 19 50 27 W 989,3 11 0 0,3

tt = temperatuur
td = dauwpunt
tt 5cm = temperatuur 5cm
tt -5cm = temperatuur -5cm
tt -20cm = temperatuur -20cm
tt -100cm = temperatuur -100cm
ff = windsnelheid
fx = windstoten
dd = windrichting
ppp = luchtdruk
vv = zicht
sd = Zonneschijnduur
rr = neerslag

Weerstations in de omgeving